Theta_e
327 326 325 324 325 326 325 322 320 319 319 321 321 322 322 323 323 324 325 317 321 327 331 334 335 335 335 334 334 334 335 335 335 335 333 332 330 330 329 329 329 329 330
327 324 323 322 323 324 324 323 320 319 319 320 321 321 322 323 324 324 325 326 321 325 329 333 334 334 333 333 334 334 334 336 333 331 329 327 327 326 325 325 325 326 326
325 323 323 322 322 322 322 321 320 319 319 320 320 321 322 323 323 324 326 327 327 321 324 330 332 332 333 334 334 335 335 333 330 327 325 324 324 323 322 322 321 321 322
324 322 322 321 322 321 321 320 320 319 319 320 320 321 322 323 324 325 326 327 327 327 325 326 330 332 333 334 335 335 332 329 327 324 322 321 320 319 319 319 319 319 319
323 323 322 322 321 321 320 320 319 319 319 319 319 320 321 322 323 324 325 325 326 327 328 322 322 326 333 335 333 332 329 326 323 320 318 317 317 316 316 316 317 317 317
323 322 322 321 321 320 320 319 319 318 319 319 317 318 321 323 324 324 324 325 326 326 326 325 325 323 324 330 330 329 326 322 319 317 315 315 314 314 314 314 314 314 314
323 322 322 320 320 319 320 319 318 318 317 318 317 320 322 324 324 325 325 325 325 325 323 322 316 315 316 319 321 322 321 319 316 314 313 312 312 312 312 312 312 312 312
323 322 322 320 320 319 319 318 318 317 318 319 318 319 316 319 321 322 323 323 322 322 317 312 309 308 307 308 310 314 314 314 313 311 310 310 309 310 310 311 311 311 311
323 323 322 322 321 320 319 319 319 318 317 319 320 320 315 314 317 320 318 318 317 311 307 305 304 303 302 303 304 305 306 308 308 307 307 307 308 309 310 310 309 309 308
323 323 323 323 322 321 321 320 320 320 320 318 320 321 323 321 316 313 314 313 310 305 303 301 299 299 298 299 300 301 302 301 301 302 303 305 306 307 306 306 307 307 307
324 323 323 322 322 322 322 321 321 320 320 320 320 320 321 322 322 317 310 306 303 301 299 297 296 295 295 295 297 297 298 299 299 299 301 303 302 302 303 304 305 305 305
324 324 323 323 323 322 322 322 321 322 322 322 322 322 321 318 318 318 317 308 299 296 296 295 293 293 293 292 292 294 295 296 297 298 300 299 298 299 300 301 302 302 303
322 322 322 322 322 322 322 323 321 321 321 321 322 322 323 322 323 321 320 307 301 295 293 293 293 291 290 290 289 290 292 294 295 297 298 297 296 296 297 298 299 300 300
322 324 322 322 322 322 322 323 323 322 322 321 321 322 322 322 318 320 319 308 301 300 294 290 291 289 289 288 288 288 288 291 293 295 296 293 294 294 295 296 296 295 296
323 323 322 321 321 322 322 323 322 322 320 318 316 309 306 302 304 306 307 312 306 296 294 290 287 289 288 288 287 287 287 288 291 294 291 291 292 293 294 292 293 294 295
320 321 321 321 321 321 321 321 317 310 307 302 301 300 298 297 298 298 300 300 300 298 291 291 287 286 286 286 286 286 286 285 288 292 288 290 291 291 290 290 291 293 295
320 318 320 320 320 317 315 312 306 303 300 297 297 296 294 295 294 295 295 296 296 296 289 286 286 286 285 284 284 285 284 283 286 288 286 289 288 288 287 288 290 291 291
314 313 310 308 307 307 305 302 299 298 295 294 293 292 291 292 290 290 290 289 289 290 289 285 285 285 283 283 283 282 281 282 284 284 286 287 285 285 285 286 287 288 288
308 306 305 302 301 300 298 297 296 294 293 292 291 290 289 289 287 287 286 286 286 286 287 286 282 284 283 282 282 282 281 281 282 281 282 284 283 283 283 284 286 287 287
306 305 303 302 301 299 297 295 293 291 289 288 288 288 287 287 286 285 285 284 285 284 284 283 282 280 281 281 281 279 279 279 280 278 280 281 280 279 281 282 285 283 283
293 294 299 298 295 294 293 291 289 288 287 285 285 285 285 285 286 286 285 284 284 283 282 281 280 279 278 278 277 277 277 277 278 276 277 279 277 277 277 279 283 282 282
288 288 287 288 288 289 290 289 287 285 285 284 283 284 285 285 286 286 286 286 285 282 280 280 279 278 276 276 276 275 275 274 274 277 274 276 276 275 275 278 281 280 280
288 287 286 285 285 285 288 287 286 284 284 283 283 283 283 283 284 283 284 283 283 284 283 280 278 277 275 275 275 274 273 272 272 273 273 273 274 273 274 275 279 279 278
287 287 286 285 284 285 287 286 285 283 282 282 282 282 282 281 280 280 278 278 278 278 278 278 277 275 275 275 275 274 272 272 273 272 271 269 272 271 272 274 276 277 277
286 285 285 285 284 284 286 285 283 282 281 280 281 281 282 281 281 281 278 278 278 278 281 281 280 278 277 276 274 272 270 269 268 270 270 269 270 268 270 272 272 274 274
284 284 284 284 284 284 286 285 283 281 280 279 280 280 281 282 282 281 277 276 275 275 275 273 272 272 272 273 272 270 270 268 267 267 269 267 267 267 266 270 270 270 270
Wind_Speed
9 8 7 6 6 6 6 5 5 5 5 5 5 5 6 6 5 4 3 7 8 7 7 7 7 5 3 1 0 2 4 6 10 13 13 13 12 12 12 12 13 14 14
9 9 8 8 7 7 6 6 6 5 5 4 6 5 6 6 6 7 5 4 7 9 9 9 6 3 1 3 3 3 4 12 15 14 12 11 11 11 12 12 14 15 15
12 11 9 8 8 7 8 6 5 5 4 4 6 6 6 8 7 7 6 4 3 6 7 6 3 2 4 5 5 8 15 15 13 12 11 11 12 12 12 12 13 13 14
13 11 9 9 8 7 7 7 6 6 6 6 6 6 6 6 7 7 5 4 4 3 3 1 4 6 6 6 7 14 14 14 13 10 10 10 11 11 12 13 14 14 15
14 11 9 9 9 7 7 7 6 6 6 6 6 6 7 7 7 6 7 6 6 4 2 6 8 7 8 11 13 13 12 13 12 10 11 11 12 12 13 14 15 15 16
14 12 9 10 10 8 8 8 9 6 6 6 5 6 7 7 6 7 7 5 4 4 7 8 8 7 11 11 12 12 13 12 12 12 11 11 12 11 13 13 13 14 15
15 14 10 10 9 10 10 10 8 9 7 5 3 5 6 8 8 5 5 4 4 5 9 9 6 5 7 17 15 13 11 12 11 11 11 11 11 11 12 13 13 13 13
15 13 13 11 11 8 10 10 10 5 6 7 4 2 3 1 4 4 2 3 8 8 9 9 10 9 8 8 11 14 13 12 13 12 12 11 10 11 11 11 12 13 15
15 15 14 12 12 11 9 11 11 12 8 7 11 4 3 4 3 3 6 6 8 7 8 9 11 10 9 7 9 11 14 13 13 12 12 11 11 11 12 13 14 13 13
16 16 16 14 13 11 12 10 10 10 9 8 4 8 8 2 3 4 4 5 8 9 8 7 8 9 8 8 10 12 14 12 12 12 12 10 10 13 13 12 13 14 14
16 17 16 15 14 10 11 12 12 12 9 8 7 3 8 7 6 3 4 4 6 6 7 6 7 6 9 6 7 9 13 12 14 13 10 11 12 13 13 13 14 14 13
11 14 15 15 15 13 12 12 12 13 12 11 9 9 7 5 7 6 4 5 6 5 6 6 6 5 6 5 10 11 13 12 11 9 8 11 13 12 13 13 13 13 14
10 14 16 14 11 13 13 12 12 13 12 12 13 10 9 9 5 6 7 4 4 4 3 6 4 5 6 4 7 8 12 10 10 9 9 11 12 13 13 12 12 13 13
13 16 16 15 15 14 13 13 10 11 12 11 13 12 9 8 6 8 7 7 4 3 4 5 4 5 5 6 7 8 5 11 10 7 11 11 12 11 10 13 14 13 13
10 13 15 16 14 14 14 14 11 12 11 8 6 5 3 3 2 2 1 6 8 6 4 5 4 4 4 4 4 5 7 9 9 8 12 11 11 10 14 13 13 12 11
9 10 11 14 14 14 13 13 8 8 9 5 6 9 8 5 5 6 4 6 6 6 6 3 3 4 3 4 5 6 6 7 8 9 13 11 11 12 13 11 11 9 14
9 9 12 15 14 12 11 10 9 11 12 11 9 10 9 7 5 5 7 7 7 7 8 4 2 7 4 4 4 4 5 6 3 11 11 10 12 12 12 11 11 12 12
5 6 5 3 5 6 6 11 14 13 14 13 12 14 10 8 10 6 6 8 5 4 5 9 4 3 4 3 4 6 6 4 4 11 11 11 13 13 12 11 9 10 11
7 7 9 9 9 11 13 13 12 13 14 13 12 12 10 9 10 8 7 6 4 5 6 6 4 2 3 2 3 4 5 5 5 10 10 10 13 13 11 10 10 10 15
8 10 9 8 10 10 12 14 15 17 17 12 12 12 10 9 10 8 7 6 7 8 9 8 5 3 2 3 4 3 3 3 4 5 7 8 10 11 11 10 11 18 16
8 9 8 8 11 10 7 14 15 15 18 16 13 11 11 12 12 10 6 7 8 8 6 6 6 3 3 3 4 3 2 3 4 6 4 4 5 6 7 9 9 18 15
11 13 15 8 15 11 21 23 19 17 17 17 16 14 13 14 16 19 19 17 11 8 8 4 4 5 5 3 3 3 3 3 2 6 5 3 5 5 5 6 15 18 15
13 18 15 15 15 16 29 27 26 16 14 13 15 13 12 9 12 14 20 22 19 19 14 7 8 5 5 3 2 4 5 3 3 6 7 3 7 5 5 4 15 15 18
12 12 20 17 14 16 30 30 26 17 14 12 10 11 12 12 10 12 13 13 13 12 11 9 10 9 8 5 6 4 3 2 4 5 8 3 6 4 5 3 14 16 19
11 14 12 18 21 16 28 26 22 15 14 13 10 8 10 11 15 16 13 13 13 12 15 19 19 17 15 13 7 3 3 2 2 3 6 4 5 6 4 3 6 14 18
12 12 16 13 19 19 23 25 18 12 14 11 10 10 11 10 15 14 10 11 11 10 11 11 9 10 9 10 12 8 4 3 3 2 5 2 4 6 6 2 6 6 9
Wind_Direction
188 191 197 196 203 202 212 216 223 234 240 241 246 250 258 262 261 259 256 246 252 256 257 260 264 273 282 269 286 353 22 44 54 68 60 48 37 32 24 18 11 2 3
189 195 198 204 208 207 212 219 222 231 238 245 256 253 262 267 262 256 250 254 239 246 251 254 260 255 171 124 119 95 70 80 76 66 53 39 36 26 18 14 8 4 359
189 194 199 205 213 211 214 215 224 232 242 240 249 247 242 244 249 251 253 254 256 242 253 264 254 159 138 130 121 87 96 85 76 61 51 48 41 34 25 19 14 8 4
193 192 199 209 211 210 211 212 215 222 230 233 245 248 253 256 250 246 247 239 238 244 243 269 153 129 133 131 111 104 94 87 71 68 60 50 41 30 25 18 14 12 9
195 198 201 204 199 207 215 217 222 222 228 237 246 258 260 258 256 252 242 231 227 224 182 110 104 112 118 110 107 106 96 84 83 71 60 49 39 31 25 17 12 10 9
195 198 205 203 197 204 209 208 220 214 231 239 251 261 262 257 252 246 250 243 228 206 144 125 104 81 77 86 95 94 85 79 71 59 52 47 41 34 29 22 18 16 14
201 197 200 204 200 204 210 205 207 217 222 224 248 261 255 246 250 259 252 240 201 142 136 124 104 85 70 71 74 81 86 76 71 63 53 48 43 35 33 26 21 19 19
203 200 195 196 197 205 208 204 200 204 220 192 203 225 271 161 88 38 61 138 129 122 104 105 100 87 84 78 74 73 69 67 61 54 51 38 37 37 37 31 26 20 16
199 201 201 199 193 195 205 203 202 204 209 202 207 197 184 214 134 50 55 85 96 92 94 98 95 88 80 74 77 62 62 60 54 44 49 39 31 39 37 28 18 18 12
201 201 204 204 197 196 204 200 196 204 205 212 202 223 241 226 166 145 88 65 71 79 77 77 74 80 78 78 58 64 63 51 54 46 36 40 42 37 29 23 22 17 16
206 206 202 201 200 199 202 199 197 202 203 209 212 176 221 224 231 177 157 138 84 63 71 74 77 74 73 62 69 54 63 51 49 38 38 49 33 35 28 27 22 20 17
206 209 206 204 206 199 195 199 204 203 207 210 212 210 206 191 209 202 193 147 119 81 80 67 80 65 76 55 64 32 58 57 49 51 51 46 33 29 30 25 26 22 20
195 209 206 203 205 202 195 197 202 209 211 207 208 216 221 224 209 205 201 143 141 147 111 70 53 62 68 46 74 54 42 47 46 49 61 41 29 28 28 26 30 27 26
202 202 197 204 202 201 199 203 203 206 207 211 213 217 218 218 201 203 205 146 133 141 158 136 77 74 53 74 40 68 54 40 39 46 59 34 34 30 33 37 29 20 23
206 201 198 199 199 202 202 202 207 206 197 192 174 128 122 102 48 359 197 179 160 156 129 158 134 107 102 89 60 76 62 40 40 61 50 42 40 41 41 28 25 25 27
190 204 203 201 200 202 203 205 193 158 139 124 127 125 115 105 94 89 60 71 69 103 121 126 84 114 85 95 58 70 72 60 35 66 44 48 47 43 38 33 35 30 43
184 191 223 207 205 197 177 169 154 140 127 119 113 109 96 91 80 75 79 93 75 93 117 77 77 143 93 92 78 83 70 59 32 67 48 66 52 44 34 32 29 40 38
169 186 147 104 133 135 138 146 138 134 126 123 120 113 115 110 91 61 76 61 70 57 88 122 136 151 94 88 85 79 56 72 64 48 54 70 50 45 38 39 35 30 41
155 138 142 145 135 121 117 110 103 106 109 111 117 113 110 109 102 94 87 97 95 81 84 120 132 100 102 71 88 70 63 70 70 47 55 57 46 42 41 38 39 27 33
162 166 151 152 143 136 129 121 125 121 104 97 98 93 104 94 103 108 101 105 101 88 92 104 107 111 111 89 82 47 63 52 60 30 44 56 44 39 33 31 27 33 21
67 67 67 136 96 102 109 124 115 106 111 102 91 87 85 89 92 101 118 99 99 100 95 101 100 86 55 54 52 23 8 3 101 34 24 45 24 29 22 7 38 26 16
77 68 82 24 92 87 104 108 109 105 105 104 105 96 89 91 95 95 91 88 90 104 108 104 97 108 106 106 73 55 22 6 10 45 359 72 24 41 25 13 23 10 16
99 94 76 83 80 91 98 94 95 93 98 98 105 108 105 91 96 96 88 83 75 78 81 100 115 111 105 54 78 73 49 10 12 11 360 349 14 18 20 1 13 19 14
101 110 112 105 97 96 96 96 91 94 89 81 90 105 106 111 106 103 99 90 79 69 70 87 94 87 87 77 65 74 76 84 117 54 10 343 357 343 353 359 5 13 9
111 107 100 114 105 104 107 105 104 97 97 94 91 92 108 111 122 118 109 102 103 98 95 95 90 85 76 67 64 115 74 120 122 80 26 334 353 316 316 306 359 2 2
100 101 103 102 111 118 121 116 113 116 113 115 109 103 105 115 125 116 114 126 117 115 109 99 86 74 70 66 59 55 57 70 76 104 34 23 358 353 326 320 337 349 344